星链-34660 (STARLINK-34660)

导读

STARLINK-34660是美国SpaceX星链卫星互联网项目的组网卫星,于2025年7月16日发射升空,属于低轨通信卫星。该卫星将加入规模庞大的星链星座,为全球尤其是偏远地区提供高速宽带网络服务,进一步拓展星链系统的全球覆盖范围与服务能力。

Basic Information
目录编号:
64800
目录名称:
STARLINK-34660
国际标识:
2025-150L
轨道中心:
EARTH
卫星名称:
星链-34660
卫星全名:
星链-34660 (STARLINK-34660)
卫星状态:
在轨 (已飞行416 天)
发射日期:
2025-07-16 UTC
国别 :
美国 (US)
星等 :
--
Orbit Information
数据来源 国际轨道数据 AOE轨道数据
星历时间 2026-09-05T04:11:56+0800
19小时前
查看轨道信息
2026-08-31T02:00:00+0800
5天前
查看轨道信息
半长轴 6950.186km 6950.195km
偏心率 0.0002674 0.0002909
轨道倾角 70.002° 70.003°
近地点辐角 262.425° 268.066°
升交点赤经 42.685° 55.521°
平近点角 97.660° 355.694°
近地点 570.19km 570.036km
远地点 573.908km 574.08km
周期 96.107分钟 96.107分钟
每日圈数 14.983323 14.983295
Detailed Information
固有亮度:
5
最大亮度:
2.5
卫星平台:
Starlink V1.0
覆盖范围:
全球
运营商:
太空探索技术公司
运营商所在国:
美国
制造商(研发单位):
太空探索技术公司
制造商所在国:
美国
使用方式:
暂无
Satellite Introduction
Starlink 计划是 SpaceX 推出的全球卫星互联网项目,通过发射低轨道卫星,为全球尤其是偏远地区提供高速、低延迟的互联网服务。自 2019 年起,Starlink 已部署数千颗卫星,旨在缩小全球数字鸿沟,推动互联网普及。该项目还为军事、航空等行业提供通信支持,带来广泛经济效益。
2D Orbit Map
3D Orbit Map
Orbit Altitude Analysis Chart
Orbit Inclination Analysis Chart
Orbit Comprehensive Analysis Chart
View Comprehensive Chart
Conjunction Data List
Event ID Objects TCA Miss Dist (km) Collision Risk Probability Collision Risk Index (CRI) Action
CDM_260901-153006-178906-480022
2026-09-01T
15:30:31+0000
1.277 km
极远距离
5.562536E-6 低风险 0.5